This demonstration page uses our WeatherBlox Daily Observations layout. Learn more.

Left ArrowRight Arrow

Hourly Observations for March 4, 2020

Temp ( °F °C ) Dew Point ( °F °C ) Humidity (%) Winds ( mph kmh ) Pressure ( in mb ) Visibility ( mi km ) Precip ( " mm )
8:15 am 08:15 Cloudy 42 5.3 29 -1.7 61 61 SSW 13 20 29.89 1012 10 16 N/A
8:35 am 08:35 Cloudy 42 5.8 30 -1.1 62 62 SSW 8 13 29.88 1012 10 16 N/A
8:55 am 08:55 Cloudy 43 6.3 30 -0.9 60 60 SSW 9 15 29.89 1012 10 16 N/A
9:15 am 09:15 Cloudy 44 6.5 31 -0.7 60 60 SSW 10 17 29.90 1013 10 16 N/A
9:35 am 09:35 Cloudy 45 7.4 31 -0.5 58 58 SW 9 15 29.89 1012 10 16 N/A
9:55 am 09:55 Cloudy 47 8.2 31 -0.4 55 55 SW 9 15 29.88 1012 10 16 N/A
10:15 am 10:15 Cloudy 49 9.4 32 -0.1 52 52 SW 9 15 29.88 1012 10 16 N/A
10:35 am 10:35 Cloudy 52 11 30 -1.1 43 43 WSW 10 17 29.87 1011 10 16 N/A
10:55 am 10:55 Cloudy 52 11.3 30 -1.2 42 42 W 15 24 29.88 1012 10 16 N/A
11:15 am 11:15 Partly Cloudy 53 11.8 31 -0.6 43 43 W 18 30 29.87 1012 10 16 N/A
11:35 am 11:35 Sunny 53 11.7 32 undefined 45 45 W 16 26 29.88 1012 10 16 N/A
11:55 am 11:55 Sunny 53 11.4 33 0.4 47 47 NW 16 26 29.89 1012 10 16 N/A
12:15 pm 12:15 Sunny 53 11.5 34 0.9 48 48 WNW 13 20 29.90 1012 10 16 N/A
12:35 pm 12:35 Sunny 53 11.5 34 1 49 49 NW 13 20 29.91 1013 10 16 N/A
12:55 pm 12:55 Sunny 52 11.2 36 2.1 54 54 NW 14 22 29.91 1013 10 16 N/A
1:35 pm 13:35 Sunny 52 11 36 2.4 56 56 NW 14 22 29.92 1013 10 16 N/A
1:55 pm 13:55 Sunny 52 11.1 37 2.6 56 56 NW 15 24 29.94 1014 10 16 N/A
2:15 pm 14:15 Sunny 51 10.8 37 2.6 57 57 NNW 23 37 29.95 1014 10 16 N/A
2:35 pm 14:35 Sunny 51 10.8 33 0.7 50 50 NNW 12 19 29.95 1014 10 16 N/A
2:55 pm 14:55 Sunny 51 10.8 35 1.5 53 53 NW 9 15 29.96 1014 10 16 N/A
3:15 pm 15:15 Sunny 51 10.5 32 0.2 49 49 NNW 13 20 29.96 1015 10 16 N/A
3:35 pm 15:35 Sunny 52 11 32 0.2 48 48 WNW 9 15 29.98 1015 10 16 N/A
3:55 pm 15:55 Sunny 51 10.7 31 -0.4 47 47 NW 12 19 29.99 1016 10 16 N/A
4:15 pm 16:15 Sunny 51 10.3 32 -0.2 48 48 WNW 6 9 30.00 1016 10 16 N/A
4:35 pm 16:35 Sunny 51 10.5 31 -0.8 46 46 WNW 7 11 30.01 1016 10 16 N/A
4:55 pm 16:55 Sunny 51 10.5 29 -1.5 44 44 NW 9 15 30.01 1016 10 16 N/A
5:15 pm 17:15 Sunny 50 10.2 28 -2.4 42 42 NW 10 17 30.02 1017 10 16 N/A
5:35 pm 17:35 Sunny 50 10 28 -2.5 42 42 NNW 6 9 30.02 1017 10 16 N/A
5:55 pm 17:55 Sunny 49 9.5 27 -2.6 43 43 NW 8 13 30.02 1017 10 16 N/A
6:10 pm 18:10 Sunny 48 9.1 28 -2.3 45 45 NW 8 13 30.03 1017 10 16 N/A

Powered by AerisWeather